Preview of NWS' New Version of Forecast
This preview is not operational and should not be used for support decisions.

Regional Weather Roundup (RWR)

Issued by National Weather Service (NWS)

                            
000
ASUS43 KMKX 230110
RWRWI 

WISCONSIN REGIONAL WEATHER ROUNDUP
NATIONAL WEATHER SERVICE MILWAUKEE/SULLIVAN WI
800 PM CDT FRI MAR 22 2019

NOTE: "FAIR" INDICATES FEW OR NO CLOUDS BELOW 12,000 FEET WITH NO
SIGNIFICANT WEATHER AND/OR OBSTRUCTIONS TO VISIBILITY.

WIZ001-002-006>008-014>016-023>028-230200-
NORTHWEST WISCONSIN
  
CITY           SKY/WX    TMP DP  RH WIND       PRES   REMARKS
SUPERIOR ARPT  FAIR      29  23  78 CALM      30.25S                  
ASHLAND        FAIR      27  22  81 N3        30.26S                  
HAYWARD        FAIR      35  20  54 NE3       30.22S                  
SIREN          FAIR      35  21  56 CALM      30.22S                  
CUMBERLAND     FAIR      37  18  44 NE5       30.21F WCI  34          
RICE LAKE      FAIR      37  22  56 CALM      30.23S                  
CHETEK         FAIR      35  22  60 NW3       30.22S                  
LADYSMITH      FAIR      36  21  55 N6        30.23S WCI  31          
EAU CLAIRE     FAIR      37  21  52 N3        30.21S                  
MENOMONIE      FAIR      35  19  52 CALM      30.22F                  
NEW RICHMOND   FAIR      38  26  62 CALM      30.22S                  
OSCEOLA        FAIR      40  22  48 CALM      30.24F                  
$$
 
WIZ003>005-009-010-017-018-230200-
NORTH CENTRAL WISCONSIN
  
CITY           SKY/WX    TMP DP  RH WIND       PRES   REMARKS
MANITOWISH WTR NOT AVBL                                               
ARBOR VITAE    FAIR      36  18  48 CALM      30.19S                  
WOODRUFF       FAIR      36  18  48 CALM      30.19S                  
RHINELANDER    FAIR      34  14  43 CALM      30.19S                  
EAGLE RIVER    FAIR      31  13  48 N5        30.19S WCI  26          
LAND O LAKES   FAIR      31  15  53 N5        30.21  WCI  26          
PHILLIPS       FAIR      33  19  57 N5        30.20S WCI  28          
TOMAHAWK       FAIR      29  17  60 CALM      30.20S                  
MEDFORD        FAIR      33  17  52 CALM      30.19R                  
MERRILL        FAIR      36  16  44 CALM      30.20S                  
$$
 
WIZ029-030-035-036-043>047-230200-
CENTRAL WISCONSIN
  
CITY           SKY/WX    TMP DP  RH WIND       PRES   REMARKS
WAUSAU         FAIR      37  15  40 CALM      30.18S                  
MOSINEE        CLEAR     37  18  44 VRB3      30.20S                  
MARSHFIELD     FAIR      33  21  61 W3        30.19S                  
STEVENS POINT  FAIR      35  17  46 CALM      30.20S                  
WAUPACA        FAIR      38  17  43 CALM      30.21S                  
WAUTOMA        FAIR      33  24  69 NW6       30.21S WCI  28          
WISC RAPIDS    FAIR      33  18  53 CALM      30.21S                  
CAMP DOUGLAS   FAIR      38  20  48 CALM      30.20S                  
$$
 
WIZ011>013-019>022-031-037>040-048>050-230200-
NORTHEAST WISCONSIN
  
CITY           SKY/WX    TMP DP  RH WIND       PRES   REMARKS
ANTIGO         FAIR      30  19  65 N5        30.19R WCI  25          
SHAWANO        FAIR      33  15  48 CALM      30.20S                  
OCONTO         FAIR      29  23  76 E5        30.22S WCI  24          
STURGEON BAY   FAIR      32  20  61 CALM      30.23R                  
GREEN BAY      FAIR      34  22  61 NE5       30.22R WCI  30          
MANITOWOC      FAIR      31  26  82 CALM      30.23R                  
APPLETON       CLEAR     37  16  41 CALM      30.19S                  
CLINTONVILLE   FAIR      37  17  44 CALM      30.21R                  
OSHKOSH        FAIR      33  22  63 CALM      30.20S                  
$$
 
WIZ032>034-041-042-053>061-230200-
SOUTHWEST WISCONSIN
  
CITY           SKY/WX    TMP DP  RH WIND       PRES   REMARKS
LA CROSSE      FAIR      38  23  55 N6        30.21S WCI  33          
SPARTA           N/A     36  23  59 CALM      30.22S HAZE             
VIROQUA        FAIR      40  26  58 CALM      30.19S                  
BOSCOBEL       FAIR      41  22  46 CALM      30.19S                  
PRAIRIE DU CHI FAIR      44  18  34 CALM      30.19S                  
PLATTEVILLE    FAIR      42  26  52 NE3       30.18S                  
$$

WIZ056-057-062-063-064-067-068-230200-
SOUTH CENTRAL WISCONSIN
  
CITY           SKY/WX    TMP DP  RH WIND       PRES   REMARKS
REEDSBURG      FAIR      41  23  48 NE5       30.19R                  
BARABOO/DELLS  FAIR      38  20  47 N3        30.20S                  
LONE ROCK      FAIR      44  25  47 NE8       30.19S                  
MINERAL POINT  FAIR      43  23  45 NE5       30.18S                  
MADISON        FAIR      36  23  59 E7        30.19R WCI  30          
MIDDLETON      FAIR      39  28  63 NE3       30.20S                  
WATERTOWN      FAIR      36  25  62 CALM      30.20S                  
MONROE         FAIR      42  23  46 MISG      30.18R                  
JANESVILLE     CLEAR     39  28  65 E8        30.20R WCI  34          
$$
 
WIZ051-052-058>065-066-070>072-230200-
SOUTHEAST WISCONSIN
  
CITY           SKY/WX    TMP DP  RH WIND       PRES   REMARKS
MILWAUKEE      FAIR      33  25  72 NE5       30.23R WCI  29          
WAUKESHA       CLEAR     30  23  74 E6        30.22R WCI  24          
MILWAUKEE/TIMM CLEAR     32  21  64 E5        30.24R WCI  27          
RACINE         FAIR      31  24  75 NE5       30.24S WCI  26          
KENOSHA        FAIR      30  24  78 E3        30.23R                  
FOND DU LAC    FAIR      34  22  61 CALM      30.21S                  
SHEBOYGAN      FAIR      31  25  78 E5        30.21S WCI  26          
WEST BEND      FAIR      32  27  80 SE5       30.22R WCI  27          
JUNEAU         FAIR      35  23  61 CALM      30.21S                  
$$

LSZ147-162-230200-
LAKE SUPERIOR
  
STATION/POSITION TIME  TEMP    WIND        PRES    WAVE
                       AIR SEA DIR/SP/G            HT/PER
                 (UTC) (F)     (DEG/KT/KT) (MB)    (FT/S)
DEVILS ISLAND    0000   31     190/  6/  8 1025.5R
SAXON HARBOR     0040   27     170/  1/  1 1024.0F
$$
 
LMZ867-665-643>646-230200-
LAKE MICHIGAN
  
STATION/POSITION TIME  TEMP    WIND        PRES    WAVE
                       AIR SEA DIR/SP/G            HT/PER
                 (UTC) (F)     (DEG/KT/KT) (MB)    (FT/S)
NORTHPORT PIER   0040   30     360/  8/ 10 1023.0S
KEWAUNEE LAKESHO 0048   32      60/  7/  9 1022.6R
SHEBOYGAN LAKESH 0100   32      50/  7/  7 1024.1R
PORT WASHINGTON  0030   34      60/  5/  8 1024.7R
MILWAUKEE LAKESH 0050   33                   N/A
KENOSHA   LAKESH 0000   34      30/  9/ 11 1023.4
$$

TC  - TEMPERATURE IN CELSIUS
VSB - VISIBILITY IN STATUTE MILES
WCI - WIND CHILL INDEX
HX  - HEAT INDEX